Location: Arbon
(43.0005°N, 0.7472°E)
Time: 10:41:14
(UTC+00:00)

SJ-6B - Pass Details

Date: 22 April 2026
Orbit: 453 x 498 km, 97.3° (Epoch: 15 May)

Event Time Altitude Azimuth Distance (km) Brightness Sun altitude
Rises 19:32:01 0° 182° (S) 2,569 6.0 -8.4°
Reaches altitude 10° 19:34:11 10° 190° (S) 1,687 5.1 -8.7°
Maximum altitude 19:37:38 41° 261° (W) 729 4.0 -9.3°
Drops below altitude 10° 19:41:04 10° 333° (NNW) 1,681 6.2 -9.8°
Sets 19:43:13 0° 341° (NNW) 2,559 7.0 -10.2°
